Location: St. Louis
(38.6270°N, 90.1994°W)
Time: 08:07:39
(UTC-06:00)

Altair - Pass Details

Date: 09 December 2021
Orbit: 1501 x 1683 km, 47.2° (Epoch: 17 January)

Event Time Altitude Azimuth Distance (km) Brightness Sun altitude
Rises 13:02:28 0° 220° (SW) 4,859 11.2 26.4°
Reaches altitude 10° 13:05:41 10° 217° (SW) 3,853 11.1 26.2°
Maximum altitude 13:15:15 61° 140° (SE) 1,766 8.5 25.6°
Drops below altitude 10° 13:24:28 10° 63° (ENE) 3,724 9.2 24.9°
Sets 13:27:31 0° 60° (ENE) 4,689 9.6 24.6°
